Weather History for Indianapolis, IN

Change the Weather History Date:

Friday, January 18, 2013

  Actual Average (KEYE) Record (KEYE)
Temperature  
Mean Temperature 29 °F 28 °F  
Max Temperature 39 °F 35 °F 43 °F (2015)
Min Temperature 19 °F 21 °F -2 °F (1997)
Degree Days  
Heating Degree Days 36 37  
Month to date heating degree days 666  
Since 1 July heating degree days 2722  
Cooling Degree Days 0 0  
Month to date cooling degree days 0  
Year to date cooling degree days 0  
Moisture  
Dew Point 17 °F    
Average Humidity 62    
Maximum Humidity 84    
Minimum Humidity 40    
Precipitation  
Precipitation 0.00 in 0.06 in 0.23 in (2011)
Month to date precipitation 1.72  
Year to date precipitation 1.72  
Sea Level Pressure  
Sea Level Pressure 30.34 in    
Wind  
Wind Speed 8 mph (SSW)    
Max Wind Speed 24 mph    
Max Gust Speed 33 mph    
Visibility 10 miles    
Events      
T = Trace of Precipitation, MM = Missing Value Source: NWS Daily Summary

Daily Weather History Graph

Daily Weather History Graph

Search for Another Location

Airport:

Trip Planner

Search our weather history database for the weather conditions in past years. The results will help you decide how hot, cold, wet, or windy it might be!

Date:

Astronomy

Jan. 18, 2013 Rise Set
Actual Time 8:03 AM EST 5:47 PM EST
Civil Twilight 7:34 AM EST 6:17 PM EST
Nautical Twilight 7:00 AM EST 6:50 PM EST
Astronomical Twilight 6:28 AM EST 7:22 PM EST
Moon 11:41 AM EST (1/18) 12:37 AM EST (1/18)
Length of Visible Light 10h 43m
Length of Day
9h 44m
Waxing Crescent, 47% of the Moon is Illuminated
Jan 18
Waxing Crescent
Jan 18
First Quarter
Jan 26
Full
Feb 3
Last Quarter
Feb 10
New

Hourly Weather History & Observations

Time (EST) Temp. Windchill Dew Point Humidity Pressure Visibility Wind Dir Wind Speed Gust Speed Precip Events Conditions
12:15 AM 22.1 °F 17.4 °F 15.8 °F 77% 30.41 in 10.0 mi West 3.5 mph - N/A   Clear
12:35 AM 21.6 °F 16.8 °F 15.8 °F 78% 30.42 in 10.0 mi WSW 3.5 mph - N/A   Clear
12:55 AM 21.2 °F 16.4 °F 15.8 °F 80% 30.42 in 10.0 mi WSW 3.5 mph - N/A   Clear
1:15 AM 21.2 °F 14.9 °F 16.2 °F 81% 30.43 in 10.0 mi WSW 4.6 mph - N/A   Clear
1:35 AM 21.2 °F 14.9 °F 15.8 °F 80% 30.43 in 10.0 mi WSW 4.6 mph - N/A   Clear
1:55 AM 20.7 °F 15.8 °F 15.6 °F 81% 30.43 in 10.0 mi SW 3.5 mph - N/A   Clear
2:15 AM 20.3 °F 15.4 °F 14.9 °F 80% 30.44 in 10.0 mi West 3.5 mph - N/A   Clear
2:35 AM 20.8 °F 16.0 °F 14.9 °F 78% 30.44 in 10.0 mi WSW 3.5 mph - N/A   Clear
2:55 AM 20.3 °F 13.8 °F 15.3 °F 81% 30.46 in 10.0 mi WSW 4.6 mph - N/A   Clear
3:15 AM 20.3 °F - 14.9 °F 80% 30.46 in 10.0 mi Calm Calm - N/A   Clear
3:35 AM 20.1 °F 15.2 °F 15.6 °F 83% 30.46 in 10.0 mi WSW 3.5 mph - N/A   Clear
3:55 AM 20.1 °F 15.2 °F 15.8 °F 83% 30.46 in 10.0 mi SSW 3.5 mph - N/A   Clear
4:15 AM 19.9 °F 14.9 °F 15.8 °F 84% 30.45 in 10.0 mi South 3.5 mph - N/A   Clear
4:35 AM 19.4 °F 14.3 °F 15.3 °F 84% 30.45 in 10.0 mi SSW 3.5 mph - N/A   Clear
4:55 AM 19.9 °F 14.9 °F 15.8 °F 84% 30.44 in 10.0 mi South 3.5 mph - N/A   Clear
5:15 AM 19.9 °F 13.4 °F 15.8 °F 84% 30.45 in 10.0 mi SW 4.6 mph - N/A   Clear
5:35 AM 19.9 °F 14.9 °F 15.6 °F 83% 30.45 in 10.0 mi SW 3.5 mph - N/A   Clear
5:55 AM 19.9 °F - 15.4 °F 83% 30.46 in 10.0 mi Calm Calm - N/A   Clear
6:15 AM 20.1 °F 15.2 °F 15.4 °F 82% 30.45 in 10.0 mi SSW 3.5 mph - N/A   Clear
6:35 AM 20.3 °F 15.4 °F 15.3 °F 81% 30.45 in 10.0 mi SSW 3.5 mph - N/A   Clear
6:55 AM 19.9 °F 12.1 °F 14.9 °F 81% 30.46 in 10.0 mi SSW 5.8 mph - N/A   Clear
7:15 AM 20.5 °F 14.0 °F 14.9 °F 79% 30.45 in 10.0 mi SSW 4.6 mph - N/A   Clear
7:35 AM 20.5 °F 15.6 °F 14.7 °F 78% 30.45 in 10.0 mi South 3.5 mph - N/A   Clear
7:55 AM 20.1 °F 15.2 °F 14.7 °F 80% 30.45 in 10.0 mi SSW 3.5 mph - N/A   Clear
8:15 AM 20.3 °F 13.8 °F 14.7 °F 79% 30.46 in 10.0 mi SSW 4.6 mph - N/A   Clear
8:35 AM 21.2 °F 14.9 °F 14.9 °F 77% 30.46 in 10.0 mi South 4.6 mph - N/A   Clear
9:15 AM 23.9 °F 15.8 °F 16.5 °F 73% 30.46 in 10.0 mi South 6.9 mph - N/A   Clear
9:35 AM 25.5 °F 17.8 °F 16.0 °F 67% 30.47 in 10.0 mi SSW 6.9 mph - N/A   Clear
9:55 AM 27.0 °F 18.7 °F 15.8 °F 63% 30.47 in 10.0 mi SSW 8.1 mph - N/A   Clear
10:15 AM 28.4 °F 19.1 °F 15.6 °F 59% 30.47 in 10.0 mi SSW 10.4 mph - N/A   Clear
10:35 AM 29.7 °F 20.1 °F 16.2 °F 57% 30.47 in 10.0 mi SSW 11.5 mph - N/A   Clear
10:55 AM 30.7 °F 22.0 °F 17.1 °F 57% 30.47 in 10.0 mi SSW 10.4 mph - N/A   Clear
11:15 AM 31.8 °F 22.3 °F 18.3 °F 57% 30.46 in 10.0 mi SSW 12.7 mph - N/A   Clear
11:35 AM 32.0 °F 22.5 °F 18.9 °F 58% 30.45 in 10.0 mi SSW 12.7 mph - N/A   Clear
11:55 AM 32.2 °F 22.7 °F 18.0 °F 56% 30.43 in 10.0 mi SSW 12.7 mph - N/A   Clear
12:15 PM 32.9 °F 22.8 °F 18.5 °F 55% 30.41 in 10.0 mi SSW 15.0 mph - N/A   Clear
12:55 PM 34.7 °F 24.7 °F 17.8 °F 50% 30.38 in 10.0 mi South 16.1 mph 23.0 mph N/A   Clear
1:15 PM 35.1 °F 25.9 °F 17.2 °F 48% 30.37 in 10.0 mi South 13.8 mph - N/A   Clear
1:35 PM 35.8 °F 26.9 °F 17.1 °F 47% 30.34 in 10.0 mi South 13.8 mph - N/A   Clear
1:55 PM 36.5 °F 27.0 °F 16.7 °F 45% 30.33 in 10.0 mi South 16.1 mph - N/A   Clear
2:15 PM 37.2 °F 27.3 °F 16.7 °F 43% 30.32 in 10.0 mi South 18.4 mph 23.0 mph N/A   Clear
2:35 PM 37.8 °F 27.7 °F 16.9 °F 43% 30.30 in 10.0 mi South 19.6 mph - N/A   Clear
3:15 PM 38.3 °F 29.0 °F 16.0 °F 40% 30.29 in 10.0 mi South 17.3 mph 23.0 mph N/A   Clear
3:35 PM 38.7 °F 30.9 °F 17.2 °F 42% 30.28 in 10.0 mi South 12.7 mph - N/A   Clear
3:55 PM 38.3 °F 29.3 °F 16.3 °F 41% 30.26 in 10.0 mi South 16.1 mph 21.9 mph N/A   Clear
4:15 PM 39.0 °F 29.9 °F 17.1 °F 41% 30.25 in 10.0 mi South 17.3 mph 24.2 mph N/A   Clear
4:35 PM 39.2 °F 30.5 °F 18.3 °F 43% 30.25 in 10.0 mi South 16.1 mph 20.7 mph N/A   Clear
4:55 PM 39.2 °F 30.5 °F 17.2 °F 41% 30.23 in 10.0 mi South 16.1 mph - N/A   Clear
5:15 PM 38.7 °F 29.1 °F 17.4 °F 42% 30.22 in 10.0 mi South 18.4 mph 21.9 mph N/A   Clear
5:35 PM 38.3 °F 30.1 °F 17.4 °F 43% 30.21 in 10.0 mi South 13.8 mph 25.3 mph N/A   Clear
5:55 PM 37.8 °F 28.6 °F 17.4 °F 44% 30.21 in 10.0 mi South 16.1 mph 24.2 mph N/A   Clear
6:15 PM 37.6 °F 28.4 °F 17.8 °F 45% 30.21 in 10.0 mi South 16.1 mph 21.9 mph N/A   Clear
6:35 PM 37.4 °F 27.8 °F 18.5 °F 46% 30.21 in 10.0 mi South 17.3 mph 21.9 mph N/A   Clear
6:55 PM 37.4 °F 27.8 °F 19.0 °F 48% 30.21 in 10.0 mi South 17.3 mph 25.3 mph N/A   Clear
7:15 PM 37.2 °F 27.3 °F 19.2 °F 48% 30.21 in 10.0 mi South 18.4 mph 26.5 mph N/A   Clear
7:35 PM 36.9 °F 26.2 °F 19.6 °F 50% 30.20 in 10.0 mi South 20.7 mph 25.3 mph N/A   Clear
7:55 PM 36.9 °F 26.8 °F 20.1 °F 51% 30.20 in 10.0 mi SSW 18.4 mph 25.3 mph N/A   Clear
8:15 PM 37.2 °F 27.3 °F 20.3 °F 50% 30.18 in 10.0 mi South 18.4 mph 25.3 mph N/A   Clear
8:35 PM 37.4 °F 27.5 °F 20.7 °F 51% 30.17 in 10.0 mi South 18.4 mph 25.3 mph N/A   Clear
8:55 PM 37.8 °F 27.4 °F 21.0 °F 51% 30.16 in 10.0 mi SSW 20.7 mph 27.6 mph N/A   Clear
9:15 PM 37.8 °F 27.1 °F 21.4 °F 52% 30.15 in 10.0 mi SSW 21.9 mph 26.5 mph N/A   Clear
9:35 PM 38.3 °F 27.3 °F 21.7 °F 51% 30.14 in 10.0 mi SSW 24.2 mph 29.9 mph N/A   Clear
9:55 PM 38.5 °F 28.3 °F 21.9 °F 51% 30.14 in 10.0 mi SSW 20.7 mph 33.4 mph N/A   Clear
10:15 PM 38.3 °F 27.6 °F 22.1 °F 52% 30.13 in 10.0 mi SSW 23.0 mph 28.8 mph N/A   Clear
10:35 PM 38.8 °F 28.3 °F 21.7 °F 50% 30.12 in 10.0 mi SSW 23.0 mph 32.2 mph N/A   Clear
10:55 PM 38.8 °F 28.5 °F 21.7 °F 50% 30.12 in 10.0 mi SSW 21.9 mph 28.8 mph N/A   Clear
11:15 PM 38.8 °F 29.1 °F 21.6 °F 50% 30.11 in 10.0 mi SSW 19.6 mph 27.6 mph N/A   Clear
11:35 PM 38.8 °F 28.5 °F 21.4 °F 50% 30.11 in 10.0 mi SSW 21.9 mph - N/A   Clear
11:55 PM 39.2 °F 29.6 °F 21.4 °F 49% 30.11 in 10.0 mi SSW 19.6 mph 27.6 mph N/A   Clear